Regional Weather Roundup
Issued by NWS

Home | Current Version | Previous Version | Text Only | Print | Product List | Glossary Off
Versions: 1 2 3 4 5 6 7 8 9 10 11 12 13 14 15 16 17 18 19 20 21 22 23 24 25 26 27 28 29 30 31 32 33 34 35 36 37 38 39 40 41 42 43 44 45 46 47 48 49 50

402
ASUS43 KFSD 071302
RWRSD

WEATHER ROUNDUP FOR SOUTH DAKOTA
NATIONAL WEATHER SERVICE SIOUX FALLS SD
700 AM CST WED DEC 07 2016

NOTE: "FAIR" INDICATES FEW OR NO CLOUDS BELOW 12,000 FEET WITH NO
SIGNIFICANT WEATHER AND/OR OBSTRUCTIONS TO VISIBILITY.


SDZ001>005-009-010-012>017-071400-
NORTHWEST AND NORTH CENTRAL SOUTH DAKOTA

CITY           SKY/WX    TMP DP  RH WIND       PRES   REMARKS
BUFFALO          N/A      2  -5  72 NW25G33   30.16R WCI -22
FAITH            N/A     -2  -6  83 W17       30.23R WCI -23
MOBRIDGE       CLOUDY     9  -1  64 NW28G35   30.17R WCI -13
$$

SDZ012>016-024>037-041>051-057-063-072>074-071400-
SOUTHWEST AND SOUTH CENTRAL SOUTH DAKOTA

CITY           SKY/WX    TMP DP  RH WIND       PRES   REMARKS
RAPID CTY ARPT CLOUDY     2  -5  72 N15       30.22R WCI -17
PIERRE         CLOUDY     8   1  73 W25       30.23R WCI -13
CUSTER         CLOUDY    -3 -10  72 CALM      29.99R
ELLSWORTH AFB  CLOUDY     3  -5  69 N18       30.20R WCI -18
PHILIP         CLEAR      2  -6  69 NW14      30.28R WCI -16
PINE RIDGE     CLOUDY     4  -1  80 N6        30.23R WCI  -7
SPEARFISH      CLOUDY     0  -8  71 NW13      30.22R WCI -18
WINNER         FAIR       7  -2  66 NW20G28   30.26R WCI -13
$$

SDZ004>011-016>023-039-040-071400-
NORTHEAST SOUTH DAKOTA

CITY           SKY/WX    TMP DP  RH WIND       PRES   REMARKS
ABERDEEN       CLOUDY     9   0  67 W25G37    30.14R WCI -12
WATERTOWN      CLOUDY     6   1  80 W21G32    30.06R WCI -14
SISSETON         N/A     11   4  73 NW24G33   30.04R WCI  -9
$$

SDZ017-020-022-023-036>040-048>070-071400-
SOUTHEAST SOUTH DAKOTA

CITY           SKY/WX    TMP DP  RH WIND       PRES   REMARKS
SIOUX FALLS    PTCLDY     9   3  77 W21G30    30.17R WCI -11
HURON          CLOUDY    11   3  70 NW21G26   30.19S WCI  -8
MITCHELL       CLOUDY    11   4  73 NW20G28   30.23R WCI  -7
YANKTON        CLOUDY    10   1  67 W17G24    30.25R WCI  -7
$$

ABBREVIATIONS USED IN REMARKS
   TC - TEMPERATURE IN CELSIUS
  WCI - WIND CHILL INDEX
   HX - HEAT INDEX
  VSB - VISIBILITY





USA.gov is the U.S. government's official web portal to all federal, state and local government web resources and services.